Autopride — CQQE — position and weather

sailwx.info

Track history (hours):
 
Tides and Currents Weather Stations Pressure Air Temp Water Temp Dewpoint Dewpoint Depression Visibility Wind Speed Wind Dir Waves Ship Positions

Autopride

Last reported at 2014-Jul-25 12:05 UTC. Time now 2014-Jul-25 16:01 UTC.
Position N 45°45' W 003°50'.

Length 125 m; draft 4.9 m.

Type: Cargo ship. MMSI: 255801560.

Date/timePositionNaut miles runAvg speedWind from/ knotsBaromVisibWave heightAir tempDewpointWater temp
2014-Jul-25 12:05N 45°45' W 003°50'9910.3
2014-Jul-25 02:31N 47°12' W 005°01'9 9.9
2014-Jul-25 01:33N 47°20' W 005°07'1010.0
2014-Jul-25 00:33N 47°28' W 005°15'11 9.6
2014-Jul-24 23:27N 47°37' W 005°23'158 9.7
2014-Jul-24 07:08N 50°14' W 006°00'610.7
2014-Jul-24 06:33N 50°20' W 005°60'1110.6
2014-Jul-24 05:33N 50°27' W 005°47'1110.5
2014-Jul-24 04:33N 50°33' W 005°34'1010.1
2014-Jul-24 03:33N 50°40' W 005°22'10 9.6
2014-Jul-24 02:33N 50°46' W 005°10'9 9.4
2014-Jul-24 01:33N 50°52' W 004°59'6510.1
2014-Jul-23 19:07N 51°21' W 003°27'713.1
2014-Jul-23 18:33N 51°21' W 003°15'1616.5
2014-Jul-23 17:34N 51°28' W 002°51'5 4.9
2014-Jul-23 16:33N 51°30' W 002°43'0 0.0
2014-Jul-23 15:33N 51°30' W 002°43'0 0.0
2014-Jul-23 14:33N 51°30' W 002°43'0 0.0
2014-Jul-23 13:34N 51°30' W 002°43'0 0.0
2014-Jul-23 12:34N 51°30' W 002°43'0 0.0
2014-Jul-23 11:33N 51°30' W 002°43'0 0.0
2014-Jul-23 10:33N 51°30' W 002°43'0 0.0
2014-Jul-23 09:33N 51°30' W 002°43'0 0.0
2014-Jul-23 08:33N 51°30' W 002°43'0 0.0
2014-Jul-23 07:34N 51°30' W 002°43'0 0.0
2014-Jul-23 06:34N 51°30' W 002°43'0 0.0
2014-Jul-23 05:34N 51°30' W 002°43'2 1.8
2014-Jul-23 04:34N 51°30' W 002°46'1616.2
2014-Jul-23 03:33N 51°21' W 003°08'8613.7
2014-Jul-22 21:17N 50°44' W 005°11'912.3
2014-Jul-22 20:34N 50°38' W 005°21'1211.9
2014-Jul-22 19:33N 50°30' W 005°35'1211.7
2014-Jul-22 18:33N 50°22' W 005°49'16413.6
2014-Jul-22 06:30N 47°39' W 005°24'3115.9
2014-Jul-22 04:32N 47°12' W 005°02'26210.5
2014-Jul-21 03:33N 43°24' W 001°58'  
2014-Jul-18 11:20N 50°26' W 005°47'6 7.4
2014-Jul-18 10:33N 50°30' W 005°40'7 7.1
2014-Jul-18 09:33N 50°35' W 005°32'7 6.7
2014-Jul-18 08:33N 50°39' W 005°24'7 6.6
2014-Jul-18 07:33N 50°43' W 005°16'8 6.8
2014-Jul-18 06:19N 50°49' W 005°06'71 9.0
2014-Jul-17 22:24N 51°21' W 003°25'6 7.7
2014-Jul-17 21:33N 51°22' W 003°15'1312.7
2014-Jul-17 20:33N 51°27' W 002°56'9 8.5
2014-Jul-17 19:33N 51°30' W 002°43'0 0.4
2014-Jul-17 18:33N 51°30' W 002°43'0 0.0
2014-Jul-17 17:33N 51°30' W 002°43'0 0.0
2014-Jul-17 16:33N 51°30' W 002°43'0 0.0
2014-Jul-17 15:33N 51°30' W 002°43'0 0.0
2014-Jul-17 14:34N 51°30' W 002°43'0 0.0
2014-Jul-17 13:34N 51°30' W 002°43'0 0.0
2014-Jul-17 12:33N 51°30' W 002°43'0 0.0
2014-Jul-17 11:33N 51°30' W 002°43'0 0.0
2014-Jul-17 10:33N 51°30' W 002°43'0 0.0
2014-Jul-17 09:33N 51°30' W 002°43'0 0.4
2014-Jul-17 08:33N 51°30' W 002°43'9 9.2
2014-Jul-17 07:33N 51°27' W 002°58'1716.7
2014-Jul-17 06:33N 51°21' W 003°22'7911.3
2014-Jul-16 23:33N 50°43' W 005°12'1211.7
2014-Jul-16 22:33N 50°35' W 005°27'1212.3
2014-Jul-16 21:33N 50°27' W 005°41'  
Track history (hours):
 
Tides and Currents Weather Stations Pressure Air Temp Water Temp Dewpoint Dewpoint Depression Visibility Wind Speed Wind Dir Waves Ship Positions

Autopride

Last reported at 2014-Jul-25 12:05 UTC. Time now 2014-Jul-25 16:01 UTC.
Position N 45°45' W 003°50'.

Length 125 m; draft 4.9 m.

Type: Cargo ship. MMSI: 255801560.

Date/timePositionNaut miles runAvg speedWind from/ knotsBaromVisibWave heightAir tempDewpointWater temp
2014-Jul-25 12:05N 45°45' W 003°50'9910.3
2014-Jul-25 02:31N 47°12' W 005°01'9 9.9
2014-Jul-25 01:33N 47°20' W 005°07'1010.0
2014-Jul-25 00:33N 47°28' W 005°15'11 9.6
2014-Jul-24 23:27N 47°37' W 005°23'158 9.7
2014-Jul-24 07:08N 50°14' W 006°00'610.7
2014-Jul-24 06:33N 50°20' W 005°60'1110.6
2014-Jul-24 05:33N 50°27' W 005°47'1110.5
2014-Jul-24 04:33N 50°33' W 005°34'1010.1
2014-Jul-24 03:33N 50°40' W 005°22'10 9.6
2014-Jul-24 02:33N 50°46' W 005°10'9 9.4
2014-Jul-24 01:33N 50°52' W 004°59'6510.1
2014-Jul-23 19:07N 51°21' W 003°27'713.1
2014-Jul-23 18:33N 51°21' W 003°15'1616.5
2014-Jul-23 17:34N 51°28' W 002°51'5 4.9
2014-Jul-23 16:33N 51°30' W 002°43'0 0.0
2014-Jul-23 15:33N 51°30' W 002°43'0 0.0
2014-Jul-23 14:33N 51°30' W 002°43'0 0.0
2014-Jul-23 13:34N 51°30' W 002°43'0 0.0
2014-Jul-23 12:34N 51°30' W 002°43'0 0.0
2014-Jul-23 11:33N 51°30' W 002°43'0 0.0
2014-Jul-23 10:33N 51°30' W 002°43'0 0.0
2014-Jul-23 09:33N 51°30' W 002°43'0 0.0
2014-Jul-23 08:33N 51°30' W 002°43'0 0.0
2014-Jul-23 07:34N 51°30' W 002°43'0 0.0
2014-Jul-23 06:34N 51°30' W 002°43'0 0.0
2014-Jul-23 05:34N 51°30' W 002°43'2 1.8
2014-Jul-23 04:34N 51°30' W 002°46'1616.2
2014-Jul-23 03:33N 51°21' W 003°08'8613.7
2014-Jul-22 21:17N 50°44' W 005°11'912.3
2014-Jul-22 20:34N 50°38' W 005°21'1211.9
2014-Jul-22 19:33N 50°30' W 005°35'1211.7
2014-Jul-22 18:33N 50°22' W 005°49'16413.6
2014-Jul-22 06:30N 47°39' W 005°24'3115.9
2014-Jul-22 04:32N 47°12' W 005°02'26210.5
2014-Jul-21 03:33N 43°24' W 001°58'  
2014-Jul-18 11:20N 50°26' W 005°47'6 7.4
2014-Jul-18 10:33N 50°30' W 005°40'7 7.1
2014-Jul-18 09:33N 50°35' W 005°32'7 6.7
2014-Jul-18 08:33N 50°39' W 005°24'7 6.6
2014-Jul-18 07:33N 50°43' W 005°16'8 6.8
2014-Jul-18 06:19N 50°49' W 005°06'71 9.0
2014-Jul-17 22:24N 51°21' W 003°25'6 7.7
2014-Jul-17 21:33N 51°22' W 003°15'1312.7
2014-Jul-17 20:33N 51°27' W 002°56'9 8.5
2014-Jul-17 19:33N 51°30' W 002°43'0 0.4
2014-Jul-17 18:33N 51°30' W 002°43'0 0.0
2014-Jul-17 17:33N 51°30' W 002°43'0 0.0
2014-Jul-17 16:33N 51°30' W 002°43'0 0.0
2014-Jul-17 15:33N 51°30' W 002°43'0 0.0
2014-Jul-17 14:34N 51°30' W 002°43'0 0.0
2014-Jul-17 13:34N 51°30' W 002°43'0 0.0
2014-Jul-17 12:33N 51°30' W 002°43'0 0.0
2014-Jul-17 11:33N 51°30' W 002°43'0 0.0
2014-Jul-17 10:33N 51°30' W 002°43'0 0.0
2014-Jul-17 09:33N 51°30' W 002°43'0 0.4
2014-Jul-17 08:33N 51°30' W 002°43'9 9.2
2014-Jul-17 07:33N 51°27' W 002°58'1716.7
2014-Jul-17 06:33N 51°21' W 003°22'7911.3
2014-Jul-16 23:33N 50°43' W 005°12'1211.7
2014-Jul-16 22:33N 50°35' W 005°27'1212.3
2014-Jul-16 21:33N 50°27' W 005°41'  

Dump ship's entire track history